TimeCST,TemperatureF,Dew PointF,Humidity,Sea Level PressureIn,VisibilityMPH,Wind Direction,Wind SpeedMPH,Gust SpeedMPH,PrecipitationIn,Events,Conditions,WindDirDegrees,DateUTC
12:53 AM,35.1,21.9,59,30.29,10.0,NW,11.5,-,N/A,,Scattered Clouds,320,2013-01-16 06:53:00
1:53 AM,34.0,19.9,56,30.30,10.0,NW,6.9,-,N/A,,Scattered Clouds,320,2013-01-16 07:53:00
2:53 AM,35.1,19.9,54,30.29,10.0,NW,6.9,-,N/A,,Scattered Clouds,320,2013-01-16 08:53:00
3:53 AM,34.0,21.0,59,30.30,10.0,NW,5.8,-,N/A,,Scattered Clouds,320,2013-01-16 09:53:00
4:53 AM,32.0,19.9,61,30.30,10.0,NW,5.8,-,N/A,,Partly Cloudy,320,2013-01-16 10:53:00
5:53 AM,32.0,19.9,61,30.32,10.0,NW,8.1,-,N/A,,Scattered Clouds,310,2013-01-16 11:53:00
6:53 AM,30.9,19.9,64,30.33,10.0,WNW,4.6,-,N/A,,Scattered Clouds,300,2013-01-16 12:53:00
7:53 AM,32.0,19.9,61,30.35,10.0,WNW,6.9,-,N/A,,Scattered Clouds,300,2013-01-16 13:53:00
8:53 AM,36.0,19.9,52,30.36,10.0,WNW,9.2,-,N/A,,Scattered Clouds,300,2013-01-16 14:53:00
9:53 AM,39.0,19.0,45,30.37,10.0,NW,11.5,-,N/A,,Partly Cloudy,310,2013-01-16 15:53:00
10:53 AM,45.0,19.9,37,30.35,10.0,NW,5.8,-,N/A,,Partly Cloudy,310,2013-01-16 16:53:00
11:53 AM,46.9,19.9,34,30.31,10.0,NW,9.2,-,N/A,,Clear,310,2013-01-16 17:53:00
12:53 PM,48.9,19.9,32,30.27,10.0,NW,4.6,-,N/A,,Clear,310,2013-01-16 18:53:00
1:53 PM,51.8,19.4,28,30.22,10.0,NNW,5.8,-,N/A,,Partly Cloudy,330,2013-01-16 19:53:00
2:53 PM,53.1,18.0,25,30.21,10.0,WNW,6.9,-,N/A,,Partly Cloudy,300,2013-01-16 20:53:00
3:53 PM,53.1,17.1,24,30.21,10.0,NW,10.4,-,N/A,,Partly Cloudy,310,2013-01-16 21:53:00
4:53 PM,53.1,17.1,24,30.22,10.0,NW,10.4,-,N/A,,Partly Cloudy,320,2013-01-16 22:53:00
5:53 PM,48.9,12.0,23,30.25,10.0,NW,4.6,-,N/A,,Partly Cloudy,310,2013-01-16 23:53:00
6:53 PM,32.0,19.0,59,30.28,10.0,NNW,3.5,-,N/A,,Clear,340,2013-01-17 00:53:00
7:53 PM,34.0,19.9,56,30.28,10.0,Calm,Calm,-,N/A,,Clear,0,2013-01-17 01:53:00
8:53 PM,34.0,21.0,59,30.29,10.0,Calm,Calm,-,N/A,,Clear,0,2013-01-17 02:53:00
9:53 PM,35.1,21.0,57,30.30,10.0,WSW,4.6,-,N/A,,Clear,250,2013-01-17 03:53:00
10:53 PM,32.0,21.9,66,30.30,10.0,Calm,Calm,-,N/A,,Partly Cloudy,0,2013-01-17 04:53:00
11:53 PM,33.1,21.9,64,30.31,10.0,West,5.8,-,N/A,,Clear,260,2013-01-17 05:53:00